Content
SEND FEEDBACK

Daily
Averages
Monthly
Summary
United States of America

LARSEN BAY, ALASKA


Home > North America > United States > Alaska
Elevation: 2 feet     Latitude: 57 32N     Longitude: 154 00W

WEATHER
 
SELECT A DAY
Number of Records: 220,449;   Date Range: 1/1/95 - 10/20/14
 
SHARE

PRINT THIS DATA

[ ← Previous Day ]
WEATHER ALMANAC - FEBRUARY 5, 2013
[ Next Day → ]
[ °C ]   °F
Weather ElementAverageHighLow
Temperature36.4 °F42.1 °F (2:53 pm)28.9 °F (11:53 pm)
Dewpoint32.8 °F37.4 °F (2:21 am)26.1 °F (9:53 pm)
Humidity87.4 %100 % (1:21 am)65 % (6:53 pm)
Barometer29.53 in29.56 in (1:21 am)29.52 in (11:53 am)
Wind Speed4.8 mph8.1 mph (3:03 am)
Weather ElementAverage
Visibility9.9 mi
Wind DirectionSSE (164.5 °)

Weather ElementTotal
Precipitation---
Heating Degree Days29.5 (Base 65)
Averaged from 31 records on February 5, 2013
WEATHER CONDITIONS BREAKOUT
WIND DIRECTION BREAKOUT
WEATHER BY HOUR - FEBRUARY 5, 2013
[ °C ]   °F
Local TimeTemperatureDewpointHumidityBarometerVisibilityWind DirectionWind SpeedGust SpeedPrecipitationEventsConditions
1:21 AM33.8 °F33.8 °F100 %29.56 in10.0 miCalmOvercast
1:53 AM37.0 °F36.0 °F96 %29.56 in10.0 miEast (80°)5.8 mphOvercast
2:02 AM37.4 °F35.6 °F93 %29.55 in10.0 miEast (80°)5.8 mphOvercast
2:21 AM37.4 °F37.4 °F100 %29.55 in10.0 miENE (70°)5.8 mphOvercast
3:03 AM37.4 °F35.6 °F93 %29.54 in10.0 miNE (50°)8.1 mphOvercast
3:46 AM37.4 °F35.6 °F93 %29.54 in10.0 miNE (40°)8.1 mphOvercast
3:50 AM37.4 °F35.6 °F93 %29.54 in10.0 miNE (40°)6.9 mphOvercast
3:53 AM37.0 °F36.0 °F96 %29.54 in10.0 miNE (40°)8.1 mphOvercast
4:00 AM37.4 °F35.6 °F93 %29.53 in10.0 miNE (40°)8.1 mphOvercast
4:31 AM37.4 °F35.6 °F93 %29.53 in10.0 miNE (40°)5.8 mphOvercast
4:53 AM36.0 °F35.1 °F97 %29.53 in10.0 miCalmOvercast
5:53 AM35.1 °F34.0 °F96 %29.53 in10.0 miWest (270°)3.5 mphOvercast
6:15 AM35.6 °F33.8 °F93 %29.53 in10.0 miCalmOvercast
6:53 AM35.1 °F34.0 °F96 %29.53 in10.0 miWNW (290°)3.5 mphOvercast
7:53 AM35.1 °F34.0 °F96 %29.53 in10.0 miWest (280°)4.6 mphOvercast
8:53 AM34.0 °F34.0 °F100 %29.53 in9.0 miWNW (290°)3.5 mph0.00 inMostly Cloudy
9:53 AM34.0 °F33.1 °F96 %29.53 in9.0 miWNW (290°)3.5 mphMostly Cloudy
10:53 AM37.0 °F35.1 °F93 %29.53 in10.0 miSSW (200°)4.6 mphMostly Cloudy
11:53 AM39.0 °F36.0 °F89 %29.52 in10.0 miSouth (190°)3.5 mphScattered Clouds
12:53 PM41.0 °F34.0 °F76 %29.53 in10.0 miCalmScattered Clouds
1:53 PM39.9 °F35.1 °F83 %29.52 in10.0 miWSW (240°)3.5 mphScattered Clouds
2:53 PM42.1 °F32.0 °F67 %29.52 in10.0 miWest (280°)4.6 mphScattered Clouds
3:53 PM39.9 °F30.9 °F70 %29.52 in10.0 miWNW (290°)4.6 mphScattered Clouds
4:53 PM39.9 °F30.9 °F70 %29.52 in10.0 miWNW (290°)3.5 mphMostly Cloudy
5:53 PM37.9 °F28.9 °F70 %29.52 in10.0 miWNW (300°)8.1 mphScattered Clouds
6:53 PM37.9 °F27.0 °F65 %29.53 in10.0 miWNW (300°)6.9 mphScattered Clouds
7:53 PM32.0 °F27.0 °F82 %29.53 in10.0 miWest (270°)5.8 mphPartly Cloudy
8:53 PM33.1 °F27.0 °F78 %29.54 in10.0 miWest (270°)6.9 mphScattered Clouds
9:53 PM33.1 °F26.1 °F75 %29.54 in10.0 miWNW (290°)8.1 mphScattered Clouds
10:53 PM32.0 °F26.1 °F79 %29.55 in10.0 miVariable3.5 mphMostly Cloudy
11:53 PM28.9 °F26.1 °F89 %29.54 in10.0 miWest (280°)3.5 mphScattered Clouds
Hourly data recorded from PAKY, located miles away from Larsen Bay, Alaska







STORIES FROM OUR PARTNERS